Wind_Speed
25 24 23 22 21 21 20 19 19 18 17 16 15 14 13 11 11 10 10 10 10 11 10 10 10 10 10 11 11 12 12 12 13 13 14 15 16 16 17 18 19 19 20
26 25 25 24 23 22 21 20 20 19 17 16 15 14 14 13 12 11 11 11 11 11 10 10 10 10 11 12 12 12 12 13 13 14 15 16 16 17 18 19 20 21 22
26 26 26 25 25 24 22 21 21 20 18 17 16 15 14 14 13 12 12 11 11 11 11 11 11 11 12 12 13 13 13 14 14 15 16 17 17 19 20 20 21 22 23
28 27 27 26 25 25 23 22 21 20 19 18 17 16 15 14 14 13 12 12 12 12 11 11 11 12 13 13 12 13 14 14 15 16 17 18 19 20 21 22 23 24 24
29 29 28 27 26 25 24 23 22 21 20 19 18 17 16 15 14 13 13 13 12 12 11 11 12 13 12 12 13 14 15 16 17 17 18 19 20 21 23 23 24 25 26
30 30 29 29 27 26 25 24 23 22 21 20 19 18 17 16 15 14 14 13 13 12 12 12 13 13 13 13 14 15 16 17 18 19 20 21 22 23 24 25 26 26 27
30 30 30 30 29 27 26 25 24 23 22 21 19 18 18 17 16 15 14 14 13 13 13 13 13 13 13 14 15 16 18 19 19 20 22 23 24 25 26 26 27 28 29
31 30 30 30 30 29 27 26 25 24 22 21 20 19 19 18 16 16 15 15 14 14 14 14 14 14 15 16 17 18 19 20 21 22 24 25 25 26 27 28 29 30 31
31 30 30 30 30 29 28 27 26 25 24 22 21 20 19 18 17 17 16 16 15 15 15 15 15 15 16 17 18 19 20 21 23 24 25 26 27 28 29 30 31 32 33
30 30 30 30 30 30 29 28 27 26 24 23 22 21 20 19 18 18 17 16 16 16 15 16 16 17 18 19 20 21 22 23 24 25 26 28 29 30 31 32 33 33 34
30 30 30 30 30 31 30 29 28 26 25 24 23 22 21 20 19 18 18 17 17 16 16 17 17 18 19 20 21 22 23 24 25 27 28 29 30 31 32 33 34 35 35
31 30 30 30 30 31 31 30 29 27 26 25 24 22 21 20 19 19 18 18 17 17 18 18 18 19 20 21 23 24 25 26 27 29 30 31 32 33 34 35 35 36 37
32 31 31 30 31 30 30 30 30 29 27 26 24 23 22 21 20 20 19 18 18 18 19 19 20 21 22 23 24 25 26 28 29 30 31 32 33 35 35 36 37 37 38
33 33 32 31 30 30 31 30 30 29 28 26 25 24 23 22 21 20 20 19 19 20 20 21 21 22 24 25 26 27 28 29 30 32 32 33 35 36 36 37 37 38 38
35 34 32 32 31 31 31 31 30 29 28 27 26 24 24 23 22 22 21 21 21 21 22 22 23 24 25 26 27 29 30 31 32 33 34 35 36 37 37 38 38 38 38
36 35 34 33 32 32 32 31 30 30 29 27 26 25 24 24 23 22 22 22 22 23 24 24 25 26 27 28 29 30 32 33 33 34 35 36 37 37 37 38 38 38 38
38 37 36 34 34 33 33 32 31 30 29 28 27 26 25 24 24 23 23 23 24 25 25 26 26 27 28 29 31 32 33 34 35 35 36 37 37 37 38 38 38 38 39
41 39 37 36 35 34 34 33 32 31 30 29 28 27 26 25 25 25 24 25 25 26 27 27 27 28 29 31 32 33 34 35 35 36 36 37 37 38 38 38 39 39 39
43 41 39 37 36 36 35 34 33 32 31 30 29 28 27 26 26 26 26 26 27 28 28 28 29 30 31 32 34 35 35 35 36 36 37 37 38 38 38 39 39 39 39
44 43 41 39 38 37 36 35 34 33 32 31 30 29 29 28 28 28 28 28 28 29 29 30 30 31 33 34 35 35 35 36 36 37 37 37 38 38 39 39 39 39 39
47 45 43 41 39 38 36 35 34 33 33 32 31 31 30 29 29 29 29 29 29 30 30 31 32 33 34 35 35 35 36 36 37 37 37 38 38 39 39 39 39 39 39
49 47 45 42 41 39 37 36 35 35 34 33 32 32 31 31 31 31 30 30 31 31 32 32 33 34 34 35 35 36 36 36 37 37 38 38 38 39 39 39 39 39 38
51 49 46 44 42 41 39 38 37 36 35 34 34 34 33 33 32 32 32 32 32 32 33 33 34 34 34 35 36 36 36 36 37 37 38 39 39 39 39 39 39 39 39
51 50 48 46 44 43 41 40 39 38 36 36 36 35 35 34 33 33 34 34 33 33 34 34 34 35 35 35 36 36 37 37 37 37 38 39 39 39 39 39 39 39 39
52 52 50 49 47 45 43 41 40 39 38 38 37 36 36 35 35 35 35 35 35 35 35 35 35 35 35 35 36 36 37 38 38 38 38 39 40 40 39 39 39 39 39
54 53 52 51 49 47 45 43 41 39 39 39 38 37 37 37 36 36 37 36 36 35 35 35 35 35 35 36 36 37 37 38 38 38 39 39 39 39 39 40 40 40 40
Wind_Direction
228 230 230 230 229 229 230 230 230 231 230 231 232 235 238 242 246 253 259 267 275 281 284 287 291 294 298 302 305 308 309 311 313 314 313 313 312 313 313 312 311 310 310
228 229 230 231 231 231 231 230 230 231 231 232 233 236 239 242 247 253 259 266 273 279 283 287 289 292 296 300 304 306 308 310 313 313 312 312 313 313 312 311 310 309 308
229 229 230 231 231 231 231 231 231 231 232 233 234 236 239 243 247 254 260 266 271 277 282 285 287 292 296 298 301 303 305 309 311 313 313 313 312 311 311 310 308 308 306
230 231 231 231 231 231 231 231 231 231 233 234 235 237 240 243 247 253 259 265 270 276 279 282 286 291 294 295 297 301 305 308 311 312 311 311 311 311 310 309 309 308 306
230 231 232 231 231 231 231 230 230 231 232 234 236 238 240 242 247 252 258 264 270 274 277 281 287 290 292 293 297 301 305 308 310 311 310 310 311 311 310 309 309 308 306
231 231 232 231 230 229 230 230 229 230 232 234 236 237 240 242 247 252 257 263 270 273 277 281 286 288 289 292 296 300 304 308 309 310 310 310 311 311 311 310 309 308 307
231 231 231 230 229 228 228 228 228 229 232 234 236 238 240 243 247 251 257 263 268 273 277 281 286 286 289 293 296 301 305 307 309 310 310 311 311 311 310 310 309 308 307
230 229 229 229 228 227 227 227 228 229 231 233 236 238 240 243 247 251 257 263 267 271 275 280 285 287 291 295 299 303 305 307 309 310 310 310 311 310 310 309 309 308 307
229 229 228 228 227 226 226 227 228 229 231 233 235 238 240 243 248 252 258 263 266 269 274 280 285 288 292 296 300 303 305 306 308 308 309 310 310 310 310 310 309 309 308
229 228 227 226 226 225 226 226 227 228 230 232 234 237 241 244 248 252 258 262 265 269 274 281 285 288 293 296 300 302 304 306 307 308 308 309 310 310 310 310 309 309 308
228 228 227 226 225 226 226 226 226 227 229 232 235 238 242 245 248 253 258 261 264 269 275 281 285 289 293 297 300 303 305 306 307 307 308 308 309 309 310 310 309 309 308
228 227 227 226 225 225 226 225 225 227 229 232 234 237 241 244 249 254 258 260 264 270 276 281 286 290 293 297 301 304 305 306 307 307 308 308 308 309 309 309 309 309 308
226 227 227 226 226 225 225 225 225 227 229 231 233 237 241 244 249 253 256 260 265 271 278 282 286 289 293 297 301 304 305 306 307 308 308 308 308 309 309 309 309 309 308
227 227 226 226 225 225 225 225 225 227 228 231 234 238 242 245 248 251 255 260 267 274 278 281 285 289 293 297 301 303 304 306 307 308 308 309 309 309 309 309 309 309 309
227 227 227 226 225 224 225 226 225 226 229 232 236 239 242 245 247 251 256 262 269 274 278 281 286 289 293 297 300 302 304 306 308 309 309 309 309 310 310 310 310 310 310
227 228 228 227 226 225 225 225 226 228 230 234 237 239 242 245 248 253 258 263 269 274 278 282 286 289 293 297 300 302 304 305 307 308 309 310 310 310 310 310 311 311 311
228 228 228 228 227 227 226 226 227 229 232 234 238 240 243 245 249 254 259 265 270 275 279 283 286 289 293 296 300 302 304 305 306 307 308 310 310 310 311 311 311 311 311
227 228 228 229 228 227 227 227 228 230 233 236 239 241 243 246 250 255 261 266 272 276 280 283 286 290 293 296 299 302 304 305 307 308 308 309 310 310 311 311 311 311 311
228 228 228 229 228 228 228 228 230 232 235 237 239 241 243 247 252 257 262 268 273 277 279 282 286 290 293 296 299 301 303 305 307 308 308 309 309 310 311 311 311 311 311
228 229 228 228 228 229 229 230 232 234 236 238 239 241 244 248 254 259 264 269 274 277 279 283 286 290 293 296 298 300 302 304 306 307 307 308 309 309 310 310 311 311 310
228 228 228 228 228 229 231 232 233 235 236 238 240 242 245 250 255 260 265 269 273 276 279 283 287 290 293 295 297 299 301 303 305 305 306 307 308 309 309 310 310 310 310
228 228 228 228 229 230 232 233 234 235 237 239 241 244 248 252 256 261 265 269 273 276 280 283 287 290 292 295 296 298 301 303 304 305 305 306 307 308 309 310 310 309 310
227 228 228 229 230 232 233 234 235 236 238 241 244 246 250 253 257 261 265 270 273 277 280 284 287 289 292 294 296 298 300 302 303 304 305 306 307 308 309 309 309 309 310
228 228 229 230 231 232 234 235 237 238 241 243 246 249 252 255 258 262 266 270 274 277 280 283 286 289 291 293 295 297 299 301 302 303 304 305 307 307 308 308 309 309 309
229 229 230 231 232 233 235 236 238 239 241 243 246 249 252 256 260 264 267 271 274 277 280 282 285 288 291 292 294 297 299 300 302 303 304 305 306 306 307 307 308 308 308
229 229 230 231 232 234 235 237 239 240 242 244 247 250 252 256 260 264 267 271 274 276 279 282 285 287 290 292 294 296 297 299 301 302 303 304 305 305 306 307 308 307 308
Height
5851 5854 5856 5858 5860 5862 5864 5866 5868 5870 5871 5873 5874 5875 5876 5877 5878 5878 5879 5879 5880 5880 5880 5880 5879 5879 5878 5878 5877 5876 5875 5875 5874 5873 5872 5871 5870 5869 5867 5866 5865 5863 5862
5848 5850 5853 5855 5857 5859 5862 5864 5866 5867 5869 5871 5872 5873 5874 5875 5876 5877 5877 5878 5878 5878 5878 5878 5878 5877 5877 5876 5875 5875 5874 5873 5873 5872 5870 5869 5868 5866 5865 5864 5862 5861 5859
5844 5846 5849 5851 5853 5856 5858 5861 5863 5865 5867 5868 5870 5871 5872 5873 5874 5875 5875 5876 5876 5877 5877 5876 5876 5876 5875 5875 5874 5873 5872 5871 5871 5870 5868 5867 5866 5864 5863 5861 5860 5858 5856
5840 5842 5845 5847 5850 5852 5855 5857 5860 5862 5864 5866 5867 5869 5870 5871 5872 5873 5873 5874 5874 5875 5875 5875 5874 5874 5873 5873 5872 5871 5870 5869 5869 5868 5866 5865 5863 5862 5860 5858 5857 5855 5853
5835 5838 5841 5843 5846 5849 5851 5854 5856 5859 5861 5863 5865 5866 5867 5868 5870 5870 5871 5872 5872 5873 5873 5873 5872 5872 5871 5871 5870 5869 5868 5867 5866 5865 5864 5862 5861 5859 5857 5855 5854 5852 5850
5831 5833 5836 5839 5842 5845 5848 5850 5853 5855 5858 5860 5862 5863 5865 5866 5867 5868 5869 5870 5870 5871 5871 5871 5870 5870 5869 5869 5868 5867 5866 5865 5864 5863 5861 5860 5858 5856 5854 5852 5850 5848 5846
5826 5829 5831 5834 5837 5841 5844 5847 5849 5852 5855 5857 5859 5861 5862 5863 5864 5866 5867 5867 5868 5868 5868 5868 5868 5868 5867 5866 5866 5865 5864 5863 5861 5860 5858 5857 5855 5853 5851 5848 5846 5844 5842
5821 5824 5826 5829 5833 5836 5840 5843 5846 5849 5851 5853 5856 5858 5859 5861 5862 5863 5864 5865 5865 5866 5866 5866 5866 5865 5865 5864 5863 5862 5861 5860 5858 5857 5855 5853 5851 5849 5847 5844 5842 5839 5837
5816 5819 5822 5825 5828 5832 5835 5839 5842 5845 5847 5850 5852 5854 5856 5858 5859 5860 5861 5862 5863 5863 5863 5863 5863 5862 5862 5861 5860 5859 5858 5857 5855 5853 5851 5849 5847 5845 5842 5840 5837 5835 5832
5811 5814 5817 5820 5824 5827 5831 5834 5838 5841 5844 5846 5849 5851 5853 5854 5856 5857 5858 5859 5859 5860 5860 5860 5860 5860 5859 5858 5857 5856 5855 5853 5851 5849 5847 5845 5843 5840 5838 5835 5832 5830 5827
5806 5809 5812 5815 5819 5823 5826 5830 5833 5837 5840 5842 5845 5847 5849 5851 5853 5854 5855 5856 5856 5857 5857 5857 5857 5856 5856 5855 5854 5852 5851 5849 5847 5845 5843 5841 5838 5836 5833 5830 5827 5824 5821
5800 5804 5807 5810 5814 5818 5821 5825 5829 5832 5836 5838 5841 5843 5846 5847 5849 5850 5851 5852 5853 5854 5854 5854 5854 5853 5852 5851 5850 5848 5847 5845 5843 5841 5838 5836 5833 5830 5828 5824 5821 5818 5815
5795 5798 5802 5805 5809 5813 5817 5820 5824 5828 5831 5834 5837 5839 5842 5844 5845 5847 5848 5849 5850 5850 5850 5850 5850 5849 5848 5847 5846 5844 5842 5841 5839 5836 5833 5831 5828 5825 5822 5819 5815 5812 5808
5789 5793 5796 5800 5804 5808 5812 5816 5819 5823 5827 5830 5833 5835 5837 5840 5841 5843 5844 5845 5846 5846 5846 5846 5846 5845 5844 5843 5841 5840 5838 5836 5834 5831 5828 5825 5822 5819 5816 5812 5809 5805 5802
5783 5787 5791 5795 5799 5803 5807 5811 5815 5818 5822 5825 5828 5831 5833 5835 5837 5838 5840 5841 5842 5842 5842 5842 5841 5841 5840 5838 5837 5835 5833 5831 5828 5826 5823 5820 5817 5813 5810 5806 5802 5799 5795
5778 5782 5786 5790 5794 5798 5802 5806 5810 5813 5817 5820 5823 5826 5828 5830 5832 5834 5836 5837 5837 5837 5837 5837 5837 5836 5835 5833 5832 5830 5827 5825 5823 5820 5817 5814 5810 5807 5803 5800 5796 5792 5788
5771 5776 5780 5784 5788 5793 5797 5801 5805 5808 5812 5815 5818 5821 5823 5825 5828 5829 5831 5832 5832 5833 5832 5832 5832 5831 5830 5828 5826 5824 5822 5819 5817 5814 5811 5807 5804 5800 5797 5793 5789 5785 5781
5764 5769 5774 5778 5783 5787 5791 5795 5799 5803 5807 5810 5813 5816 5818 5820 5823 5824 5826 5827 5827 5827 5827 5827 5826 5825 5824 5822 5820 5818 5816 5813 5810 5808 5804 5801 5797 5794 5790 5786 5783 5779 5775
5757 5762 5767 5772 5777 5781 5785 5790 5794 5798 5801 5805 5808 5810 5813 5815 5817 5819 5820 5821 5822 5822 5822 5821 5821 5820 5818 5817 5814 5812 5810 5807 5804 5801 5798 5795 5791 5788 5784 5780 5776 5772 5768
5750 5755 5761 5765 5770 5774 5779 5784 5788 5792 5796 5799 5802 5805 5808 5810 5812 5814 5815 5816 5816 5816 5816 5815 5815 5813 5812 5810 5808 5806 5803 5801 5798 5795 5791 5788 5785 5781 5777 5773 5769 5765 5761
5741 5747 5753 5759 5764 5768 5773 5778 5782 5786 5790 5794 5797 5799 5802 5804 5806 5808 5809 5810 5810 5810 5810 5809 5808 5807 5805 5803 5802 5799 5797 5794 5791 5788 5785 5781 5778 5774 5770 5766 5762 5758 5754
5733 5739 5746 5752 5757 5762 5767 5772 5776 5780 5783 5787 5790 5793 5796 5798 5800 5802 5803 5803 5804 5804 5803 5803 5802 5800 5799 5797 5795 5792 5790 5788 5784 5781 5778 5775 5771 5767 5763 5759 5755 5751 5747
5725 5732 5738 5745 5750 5755 5760 5764 5768 5773 5777 5781 5784 5787 5789 5792 5794 5795 5796 5797 5797 5797 5797 5796 5795 5794 5792 5790 5788 5786 5783 5781 5778 5775 5771 5768 5764 5760 5756 5752 5748 5744 5740
5717 5724 5730 5736 5742 5747 5752 5757 5762 5767 5771 5775 5777 5780 5782 5785 5787 5788 5789 5790 5790 5790 5790 5789 5788 5786 5785 5783 5780 5778 5776 5774 5771 5768 5764 5761 5757 5753 5749 5745 5741 5737 5732
5708 5715 5721 5728 5734 5739 5744 5750 5755 5759 5764 5767 5770 5773 5775 5777 5780 5781 5782 5783 5783 5783 5782 5782 5781 5779 5778 5776 5773 5771 5768 5766 5763 5760 5757 5754 5750 5746 5742 5738 5733 5729 5725
5698 5705 5712 5718 5725 5731 5737 5742 5747 5752 5755 5759 5762 5765 5768 5770 5772 5774 5774 5775 5775 5775 5775 5774 5773 5772 5770 5768 5766 5763 5761 5758 5755 5752 5749 5746 5742 5738 5734 5730 5725 5721 5717